Date,TemperatureHighF,TemperatureAvgF,TemperatureLowF,DewpointHighF,DewpointAvgF,DewpointLowF,HumidityHigh,HumidityAvg,HumidityLow,PressureMaxIn,PressureMinIn,WindSpeedMaxMPH,WindSpeedAvgMPH,GustSpeedMaxMPH,PrecipitationSumIn
2013-4-1,47,37,28,41,29,12,82,72,40,29.51,29.25,19,2,23,0.00
2013-4-2,33,27,22,21,13,8,68,53,41,29.63,29.50,21,2,23,0.00
2013-4-3,41,30,23,15,12,8,63,47,27,29.90,29.62,24,3,31,0.00
2013-4-4,51,35,21,24,18,12,82,54,26,30.01,29.68,14,1,15,0.00
2013-4-5,53,38,27,29,25,20,89,63,31,29.68,29.43,13,1,16,0.00
2013-4-6,42,30,23,20,11,4,76,47,23,30.02,29.63,17,1,19,0.00
2013-4-7,57,38,21,35,24,16,82,61,35,30.01,29.61,18,1,21,0.00
2013-4-8,62,46,33,36,33,28,88,65,35,29.82,29.64,8,0,13,0.00
2013-4-9,62,48,39,46,39,33,82,73,49,29.75,29.59,16,1,16,0.00
2013-4-10,54,46,42,46,40,36,82,79,75,29.72,29.59,6,0,6,0.00
2013-4-11,43,38,33,37,31,24,82,74,53,29.90,29.61,14,0,15,0.00
2013-4-12,34,32,30,30,26,24,89,80,70,29.90,29.61,8,0,12,0.00
2013-4-13,52,39,32,38,32,26,81,75,54,29.66,29.52,13,0,13,0.00
2013-4-14,47,38,28,36,30,23,85,73,50,29.97,29.64,14,1,18,0.00
2013-4-15,59,41,25,37,30,20,81,66,40,30.11,29.97,11,0,15,0.00
2013-4-16,61,50,38,51,41,32,81,72,56,30.05,29.70,15,1,17,0.00
2013-4-17,60,48,32,44,33,27,82,60,33,30.08,29.75,14,1,17,0.00
2013-4-18,63,45,28,41,30,22,82,59,39,30.15,29.80,17,1,19,0.00
2013-4-19,71,60,49,60,51,41,79,74,63,29.80,29.23,22,2,25,0.00
2013-4-20,53,44,34,44,31,18,79,62,41,29.97,29.33,19,2,25,0.00
2013-4-21,50,37,25,23,19,14,80,51,28,30.41,29.96,14,1,15,0.00
2013-4-22,56,38,23,29,22,18,83,56,30,30.48,30.28,12,1,14,0.00
2013-4-23,40,35,27,34,30,22,82,79,76,30.32,29.91,6,0,6,0.00
2013-4-24,75,55,39,48,41,31,80,61,34,29.92,29.42,13,1,14,0.00
2013-4-25,57,48,31,48,32,22,81,57,27,30.01,29.42,20,2,22,0.00
2013-4-26,58,43,27,36,29,22,82,62,36,30.16,30.01,9,0,10,0.00
2013-4-27,66,47,30,40,31,24,81,58,21,30.17,29.99,8,0,10,0.00
2013-4-28,73,52,30,40,33,24,81,54,26,30.06,29.84,12,0,13,0.00
2013-4-29,67,55,43,44,37,31,70,51,35,29.95,29.86,14,1,17,0.00
2013-4-30,73,58,44,43,37,29,78,47,30,30.04,29.93,12,0,13,0.00